This is the latest recevied weather packets stored in our database for station/object PA0HHN. If no packets are shown the sender has not sent any weather packets the latest 10 day(s).
| Time | Temp. | Humidity | Pressure | Rain* | Wind** | Luminosity | Snow |
|---|---|---|---|---|---|---|---|
| 1778208300 | 5° C | 99% | 1012.9 hPa | - | - | - | - |
| 1778207401 | 5° C | 99% | 1012.8 hPa | - | - | - | - |
| 1778206504 | 5° C | 99% | 1013 hPa | - | - | - | - |
| 1778205601 | 5° C | 99% | 1013 hPa | - | - | - | - |
| 1778204700 | 5° C | 99% | 1013 hPa | - | - | - | - |
| 1778203801 | 3.89° C | 99% | 1013.1 hPa | - | - | - | - |
| 1778195701 | 6.11° C | 95% | 1012.9 hPa | - | - | - | - |
| 1778194802 | 7.22° C | 95% | 1013 hPa | - | - | - | - |
| 1778193900 | 6.11° C | 94% | 1012.9 hPa | - | - | - | - |
| 1778193001 | 7.22° C | 94% | 1012.8 hPa | - | - | - | - |
| 1778192101 | 6.11° C | 93% | 1012.8 hPa | - | - | - | - |
| 1778191202 | 7.22° C | 91% | 1012.5 hPa | - | - | - | - |
| 1778190301 | 7.78° C | 90% | 1012.7 hPa | - | - | - | - |
| 1778189402 | 7.78° C | 89% | 1012.8 hPa | - | - | - | - |
| 1778188502 | 7.78° C | 88% | 1012.6 hPa | - | - | - | - |
| 1778187600 | 7.78° C | 87% | 1012.7 hPa | - | - | - | - |
| 1778186702 | 7.78° C | 86% | 1012.3 hPa | - | - | - | - |
| 1778185800 | 7.78° C | 84% | 1012.4 hPa | - | - | - | - |
| 1778184902 | 8.89° C | 82% | 1012.3 hPa | - | - | - | - |
| 1778184000 | 10° C | 80% | 1012.2 hPa | - | - | - | - |
| 1778183102 | 10° C | 79% | 1012.2 hPa | - | - | - | - |
| 1778182201 | 10° C | 78% | 1012.1 hPa | - | - | - | - |
| 1778181301 | 11.11° C | 77% | 1011.8 hPa | - | - | - | - |
| 1778180401 | 11.11° C | 76% | 1011.6 hPa | - | - | - | - |
| 1778179502 | 12.22° C | 74% | 1011.6 hPa | - | - | - | - |
* Rain since midnight (hover to see other rain measurements)
** Current wind speed in m/s (hover to see current wind gust speed)